College Park, MD

10:20 AM EDT on September 18, 2019 (GMT -0400)
College Park

Weather History for KCGS - July, 2019

Change the Weather History Date:

Wednesday, July 17, 2019

  Actual Average Record
Temperature  
Mean Temperature 86 °F -  
Max Temperature 97 °F 88 °F 104 °F (1988)
Min Temperature 74 °F 68 °F 53 °F (1954)
Cooling Degree Days 20    
Growing Degree Days 36 (Base 50)    
Moisture  
Dew Point 71 °F    
Average Humidity 63    
Maximum Humidity 100    
Minimum Humidity 37    
Precipitation  
Precipitation 0.00 in - - ()
Sea Level Pressure  
Sea Level Pressure 29.94 in    
Wind  
Wind Speed 2 mph (SSW)    
Max Wind Speed 15 mph    
Max Gust Speed 34 mph    
Visibility 10 miles    
Events      
Averages and records for this station are not official NWS values.
T = Trace of Precipitation, MM = Missing Value Source: NWS Daily Summary

Daily Weather History Graph

Daily Weather History Graph

Search for Another Location

Airport or City:

Astronomy

Jul. 17, 2019 Rise Set
Actual Time 5:55 AM EDT 8:31 PM EDT
Civil Twilight 5:24 AM EDT 9:02 PM EDT
Nautical Twilight 4:46 AM EDT 9:41 PM EDT
Astronomical Twilight 4:02 AM EDT 10:24 PM EDT
Moon 9:18 PM EDT (7/17) 6:26 AM EDT (7/17)
Length of Visible Light 15h 37m
Length of Day
14h 35m
Waxing Gibbous, 99% of the Moon is Illuminated
Jul 17
Waxing Gibbous
Jul 24
Last Quarter
Jul 31
New
Aug 7
First Quarter
Aug 15
Full

Hourly Weather History & Observations

Time (EDT) Temp. Heat Index Dew Point Humidity Pressure Visibility Wind Dir Wind Speed Gust Speed Precip Events Conditions
12:03 AM 82.4 °F 86.5 °F 70.5 °F 67% 30.03 in 10.0 mi Calm Calm - N/A   Clear
12:23 AM 82.4 °F 86.3 °F 70.2 °F 66% 30.02 in 10.0 mi Calm Calm - N/A   Clear
1:03 AM 82.4 °F 86.3 °F 70.0 °F 66% 30.02 in 10.0 mi Calm Calm - N/A   Clear
1:23 AM 82.0 °F 85.9 °F 70.0 °F 67% 30.02 in 10.0 mi Calm Calm - N/A   Clear
1:43 AM 81.7 °F 85.4 °F 70.0 °F 68% 30.01 in 10.0 mi Calm Calm - N/A   Clear
2:03 AM 81.5 °F 84.9 °F 69.8 °F 67% 30.00 in 10.0 mi Calm Calm - N/A   Clear
2:23 AM 79.7 °F - 70.5 °F 73% 30.00 in 10.0 mi Calm Calm - N/A   Clear
3:03 AM 78.8 °F - 70.2 °F 75% 29.99 in 10.0 mi Calm Calm - N/A   Clear
3:23 AM 78.6 °F - 70.5 °F 76% 29.99 in 10.0 mi Calm Calm - N/A   Clear
3:43 AM 79.0 °F - 69.6 °F 73% 29.98 in 10.0 mi Calm Calm - N/A   Clear
4:03 AM 79.3 °F - 70.7 °F 75% 29.98 in 10.0 mi South 3.5 mph - N/A   Clear
4:23 AM 79.0 °F - 70.3 °F 75% 29.98 in 10.0 mi South 3.5 mph - N/A   Clear
4:43 AM 78.8 °F - 70.2 °F 75% 29.98 in 10.0 mi Calm Calm - N/A   Clear
5:03 AM 78.3 °F - 70.2 °F 76% 29.99 in 10.0 mi South 3.5 mph - N/A   Clear
5:23 AM 77.9 °F - 70.0 °F 76% 29.99 in 10.0 mi Calm Calm - N/A   Clear
5:43 AM 77.9 °F - 70.0 °F 76% 29.99 in 10.0 mi Calm Calm - N/A   Clear
6:03 AM 77.5 °F - 70.3 °F 78% 29.99 in 10.0 mi South 3.5 mph - N/A   Clear
6:23 AM 77.4 °F - 70.9 °F 80% 29.99 in 10.0 mi Calm Calm - N/A   Clear
6:43 AM 78.1 °F - 71.1 °F 79% 29.99 in 10.0 mi South 3.5 mph - N/A   Clear
7:03 AM 78.3 °F - 70.9 °F 78% 29.99 in 10.0 mi SSE 3.5 mph - N/A   Clear
7:23 AM 79.9 °F - 71.8 °F 76% 29.99 in 10.0 mi Calm Calm - N/A   Clear
7:43 AM 82.0 °F 86.7 °F 71.8 °F 71% 29.99 in 10.0 mi Calm Calm - N/A   Clear
8:03 AM 83.5 °F 88.8 °F 72.0 °F 68% 29.99 in 10.0 mi Calm Calm - N/A   Clear
8:23 AM 85.1 °F 91.5 °F 72.5 °F 66% 29.99 in 10.0 mi SSW 3.5 mph - N/A   Clear
9:03 AM 86.0 °F 92.6 °F 72.7 °F 64% 29.99 in 10.0 mi Calm Calm - N/A   Clear
9:23 AM 86.9 °F 94.5 °F 73.4 °F 64% 29.99 in 10.0 mi SW 4.6 mph - N/A   Clear
9:43 AM 88.9 °F 98.1 °F 74.1 °F 62% 29.99 in 10.0 mi South 3.5 mph - N/A   Clear
10:03 AM 90.3 °F 99.3 °F 73.8 °F 58% 29.98 in 10.0 mi SSW 3.5 mph - N/A   Clear
11:03 AM 93.0 °F 102.6 °F 73.6 °F 53% 29.98 in 10.0 mi WSW 5.8 mph - N/A   Clear
11:23 AM 94.6 °F 101.1 °F 70.0 °F 45% 29.97 in 10.0 mi WSW 4.6 mph - N/A   Clear
11:43 AM 95.7 °F 103.4 °F 71.2 °F 45% 29.97 in 10.0 mi Calm Calm - N/A   Clear
12:03 PM 94.6 °F 98.9 °F 67.5 °F 41% 29.96 in 10.0 mi West 4.6 mph - N/A   Clear
12:23 PM 95.7 °F 100.9 °F 68.9 °F 41% 29.95 in 10.0 mi NW 5.8 mph - N/A   Scattered Clouds
12:43 PM 95.7 °F 98.7 °F 65.5 °F 37% 29.95 in 10.0 mi WSW 4.6 mph - N/A   Scattered Clouds
1:03 PM 95.9 °F 100.1 °F 67.6 °F 39% 29.94 in 10.0 mi WSW 4.6 mph - N/A   Scattered Clouds
1:23 PM 96.3 °F 102.0 °F 69.3 °F 41% 29.94 in 10.0 mi West 4.6 mph - N/A   Scattered Clouds
1:43 PM 96.8 °F 103.8 °F 70.2 °F 42% 29.93 in 10.0 mi South 6.9 mph - N/A   Mostly Cloudy
2:03 PM 97.7 °F 105.0 °F 70.3 °F 41% 29.92 in 10.0 mi SSE 5.8 mph - N/A   Scattered Clouds
2:23 PM 95.9 °F 102.5 °F 69.8 °F 43% 29.91 in 10.0 mi SSE 4.6 mph - N/A   Scattered Clouds
2:43 PM 97.7 °F 102.4 °F 67.3 °F 37% 29.90 in 10.0 mi SSW 5.8 mph - N/A   Scattered Clouds
3:03 PM 97.9 °F 105.4 °F 70.5 °F 41% 29.89 in 10.0 mi South 10.4 mph - N/A   Clear
3:23 PM 97.0 °F 104.1 °F 70.3 °F 42% 29.88 in 10.0 mi South 6.9 mph - N/A   Clear
3:43 PM 96.8 °F 104.4 °F 71.1 °F 43% 29.88 in 10.0 mi South 5.8 mph - N/A   Scattered Clouds
4:03 PM 97.2 °F 105.9 °F 72.0 °F 44% 29.86 in 10.0 mi Calm Calm - N/A   Scattered Clouds
4:23 PM 96.8 °F 105.8 °F 72.0 °F 45% 29.86 in 10.0 mi SSE 11.5 mph 17.3 mph N/A   Scattered Clouds
4:43 PM 95.2 °F 102.9 °F 71.4 °F 46% 29.85 in 10.0 mi South 8.1 mph - N/A   Scattered Clouds
5:03 PM 93.6 °F 101.3 °F 71.8 °F 49% 29.85 in 10.0 mi South 6.9 mph - N/A   Scattered Clouds
5:23 PM 92.8 °F 99.7 °F 70.9 °F 49% 29.86 in 10.0 mi South 4.6 mph 17.3 mph N/A   Mostly Cloudy
5:43 PM 89.2 °F 93.6 °F 68.9 °F 51% 29.90 in 10.0 mi WSW 15.0 mph 34.5 mph N/A   Scattered Clouds
6:03 PM 76.5 °F - 68.7 °F 77% 29.92 in 2.5 mi SW 6.9 mph 16.1 mph N/A   Overcast
6:23 PM 75.2 °F - 70.3 °F 85% 29.91 in 10.0 mi Calm Calm - N/A   Overcast
6:43 PM 74.8 °F - 74.5 °F 99% 29.91 in 10.0 mi Calm Calm - N/A   Mostly Cloudy
7:03 PM 74.5 °F - 74.5 °F 100% 29.89 in 10.0 mi Calm Calm - N/A   Scattered Clouds
7:23 PM 74.8 °F - 74.7 °F 99% 29.89 in 10.0 mi Calm Calm - N/A   Scattered Clouds
7:43 PM 74.8 °F - 74.8 °F 100% 29.89 in 10.0 mi Calm Calm - N/A   Scattered Clouds
8:03 PM - - - N/A% 29.89 in 10.0 mi Calm Calm - N/A   Clear
8:23 PM - - - N/A% 29.89 in 10.0 mi Calm Calm - N/A   Clear
8:43 PM - - - N/A% 29.88 in 10.0 mi Calm Calm - N/A   Clear
9:03 PM - - - N/A% 29.88 in 10.0 mi Calm Calm - N/A   Scattered Clouds
9:23 PM - - - N/A% 29.89 in 10.0 mi Calm Calm - N/A   Scattered Clouds
9:43 PM - - - N/A% 29.89 in 10.0 mi Calm Calm - N/A   Mostly Cloudy
10:23 PM - - - N/A% 29.90 in 10.0 mi Calm Calm - N/A   Mostly Cloudy
10:43 PM - - - N/A% 29.89 in 10.0 mi Calm Calm - N/A   Mostly Cloudy
11:03 PM - - - N/A% 29.89 in 10.0 mi Calm Calm - N/A   Mostly Cloudy
11:23 PM - - - N/A% 29.89 in 10.0 mi Calm Calm - N/A   Scattered Clouds
11:43 PM - - - N/A% 29.88 in 7.0 mi Calm Calm - N/A   Clear